Time,TemperatureF,DewpointF,PressureIn,WindDirection,WindDirectionDegrees,WindSpeedMPH,WindSpeedGustMPH,Humidity,HourlyPrecipIn,Conditions,Clouds,dailyrainin,SoftwareType,DateUTC
2013-03-08 00:02:00,36.9,28.7,30.19,East,90,5.2,6.1,72,0.00,,,0.00,WUHU216HW,2013-03-08 06:02:00,
2013-03-08 00:07:00,36.7,28.3,30.19,ESE,113,2.8,5.6,71,0.00,,,0.00,WUHU216HW,2013-03-08 06:07:00,
2013-03-08 00:12:00,36.5,28.4,30.19,SE,135,3.2,5.6,72,0.00,,,0.00,WUHU216HW,2013-03-08 06:12:00,
2013-03-08 00:17:00,36.4,28.5,30.19,East,90,3.7,5.4,73,0.00,,,0.00,WUHU216HW,2013-03-08 06:17:00,
2013-03-08 00:22:00,36.5,28.7,30.19,ENE,68,3.7,4.8,73,0.00,,,0.00,WUHU216HW,2013-03-08 06:22:00,
2013-03-08 00:27:00,36.4,28.5,30.19,SSE,158,0.2,6.5,73,0.00,,,0.00,WUHU216HW,2013-03-08 06:27:00,
2013-03-08 00:32:00,36.4,28.5,30.19,ESE,113,1.0,6.5,73,0.00,,,0.00,WUHU216HW,2013-03-08 06:32:00,
2013-03-08 00:37:00,36.4,28.5,30.19,SE,135,3.4,5.4,73,0.00,,,0.00,WUHU216HW,2013-03-08 06:37:00,
2013-03-08 00:42:00,36.2,28.4,30.19,ESE,113,4.4,4.8,73,0.00,,,0.00,WUHU216HW,2013-03-08 06:42:00,
2013-03-08 00:47:00,36.0,28.2,30.19,ESE,113,4.9,5.4,73,0.00,,,0.00,WUHU216HW,2013-03-08 06:47:00,
2013-03-08 00:52:00,35.8,28.0,30.20,SE,135,1.2,5.4,73,0.00,,,0.00,WUHU216HW,2013-03-08 06:52:00,
2013-03-08 00:57:00,35.8,28.0,30.20,ESE,113,3.0,5.9,73,0.00,,,0.00,WUHU216HW,2013-03-08 06:57:00,
2013-03-08 01:02:00,35.6,27.8,30.20,ESE,113,1.2,5.9,73,0.00,,,0.00,WUHU216HW,2013-03-08 07:02:00,
2013-03-08 01:07:00,35.6,27.8,30.20,SE,135,3.0,4.3,73,0.00,,,0.00,WUHU216HW,2013-03-08 07:07:00,
2013-03-08 01:12:00,35.5,27.6,30.20,East,90,2.4,4.3,73,0.00,,,0.00,WUHU216HW,2013-03-08 07:12:00,
2013-03-08 01:17:00,35.3,27.5,30.20,ESE,113,0.0,3.2,73,0.00,,,0.00,WUHU216HW,2013-03-08 07:17:00,
2013-03-08 01:22:00,35.1,27.3,30.20,ENE,68,1.0,2.6,73,0.00,,,0.00,WUHU216HW,2013-03-08 07:22:00,
2013-03-08 01:27:00,35.3,28.1,30.20,East,90,0.0,3.7,75,0.00,,,0.00,WUHU216HW,2013-03-08 07:27:00,
2013-03-08 01:32:00,35.5,28.3,30.20,ESE,113,1.2,3.7,75,0.00,,,0.00,WUHU216HW,2013-03-08 07:32:00,
2013-03-08 01:37:00,35.6,28.1,30.20,ESE,113,0.8,3.7,74,0.00,,,0.00,WUHU216HW,2013-03-08 07:37:00,
2013-03-08 01:42:00,35.6,27.8,30.20,ENE,68,0.4,3.7,73,0.00,,,0.00,WUHU216HW,2013-03-08 07:42:00,
2013-03-08 01:47:00,35.6,28.1,30.20,ESE,113,1.8,2.6,74,0.00,,,0.00,WUHU216HW,2013-03-08 07:47:00,
2013-03-08 01:52:00,35.8,28.0,30.21,East,90,0.0,2.4,73,0.00,,,0.00,WUHU216HW,2013-03-08 07:52:00,
2013-03-08 01:57:00,35.6,27.8,30.20,ESE,113,0.0,2.6,73,0.00,,,0.00,WUHU216HW,2013-03-08 07:57:00,
2013-03-08 02:02:00,35.5,27.6,30.20,ESE,113,0.0,2.6,73,0.00,,,0.00,WUHU216HW,2013-03-08 08:02:00,
2013-03-08 02:07:00,35.5,28.3,30.20,NE,45,0.0,2.4,75,0.00,,,0.00,WUHU216HW,2013-03-08 08:07:00,
2013-03-08 02:12:00,35.6,28.1,30.19,ENE,68,0.8,2.6,74,0.00,,,0.00,WUHU216HW,2013-03-08 08:12:00,
2013-03-08 02:17:00,35.6,27.8,30.20,ESE,113,0.0,2.6,73,0.00,,,0.00,WUHU216HW,2013-03-08 08:17:00,
2013-03-08 02:22:00,35.5,27.6,30.20,ESE,113,0.0,2.4,73,0.00,,,0.00,WUHU216HW,2013-03-08 08:22:00,
2013-03-08 02:27:00,35.5,27.9,30.19,ENE,68,0.0,0.0,74,0.00,,,0.00,WUHU216HW,2013-03-08 08:27:00,
2013-03-08 02:32:00,35.6,28.1,30.19,ESE,113,0.0,3.0,74,0.00,,,0.00,WUHU216HW,2013-03-08 08:32:00,
2013-03-08 02:37:00,35.3,27.5,30.19,SSE,158,0.0,3.0,73,0.00,,,0.00,WUHU216HW,2013-03-08 08:37:00,
2013-03-08 02:42:00,34.9,27.1,30.19,ESE,113,0.0,3.0,73,0.00,,,0.00,WUHU216HW,2013-03-08 08:42:00,
2013-03-08 02:47:00,34.7,26.9,30.19,ESE,113,0.0,3.0,73,0.00,,,0.00,WUHU216HW,2013-03-08 08:47:00,
2013-03-08 02:52:00,34.6,26.7,30.19,ESE,113,0.0,0.0,73,0.00,,,0.00,WUHU216HW,2013-03-08 08:52:00,
2013-03-08 02:57:00,34.4,26.6,30.19,ESE,113,0.0,0.0,73,0.00,,,0.00,WUHU216HW,2013-03-08 08:57:00,
2013-03-08 03:02:00,34.2,26.4,30.19,ESE,113,0.8,2.2,73,0.00,,,0.00,WUHU216HW,2013-03-08 09:02:00,
2013-03-08 03:07:00,34.0,26.5,30.19,SE,135,0.0,2.2,74,0.00,,,0.00,WUHU216HW,2013-03-08 09:07:00,
2013-03-08 03:12:00,33.8,26.3,30.19,SE,135,0.0,0.8,74,0.00,,,0.00,WUHU216HW,2013-03-08 09:12:00,
2013-03-08 03:17:00,34.0,26.8,30.19,SE,135,0.0,2.2,75,0.00,,,0.00,WUHU216HW,2013-03-08 09:17:00,
2013-03-08 03:22:00,33.8,26.6,30.19,ESE,113,2.4,2.6,75,0.00,,,0.00,WUHU216HW,2013-03-08 09:22:00,
2013-03-08 03:27:00,33.8,26.3,30.19,ESE,113,1.2,3.0,74,0.00,,,0.00,WUHU216HW,2013-03-08 09:27:00,
2013-03-08 03:32:00,34.2,27.4,30.18,ESE,113,2.8,3.0,76,0.00,,,0.00,WUHU216HW,2013-03-08 09:32:00,
2013-03-08 03:37:00,34.4,27.8,30.18,ENE,68,0.0,3.0,77,0.00,,,0.00,WUHU216HW,2013-03-08 09:37:00,
2013-03-08 03:42:00,34.6,27.7,30.18,ESE,113,0.0,3.0,76,0.00,,,0.00,WUHU216HW,2013-03-08 09:42:00,
2013-03-08 03:47:00,34.2,27.0,30.18,ESE,113,0.0,0.0,75,0.00,,,0.00,WUHU216HW,2013-03-08 09:47:00,
2013-03-08 03:52:00,34.0,26.8,30.18,ESE,113,0.0,0.0,75,0.00,,,0.00,WUHU216HW,2013-03-08 09:52:00,
2013-03-08 03:57:00,34.0,27.2,30.18,East,90,0.0,0.0,76,0.00,,,0.00,WUHU216HW,2013-03-08 09:57:00,
2013-03-08 04:02:00,34.2,27.6,30.18,East,90,0.0,0.0,77,0.00,,,0.00,WUHU216HW,2013-03-08 10:02:00,
2013-03-08 04:07:00,34.6,28.0,30.18,ESE,113,0.0,0.0,77,0.00,,,0.00,WUHU216HW,2013-03-08 10:07:00,
2013-03-08 04:12:00,34.6,27.7,30.18,ESE,113,0.0,3.5,76,0.00,,,0.00,WUHU216HW,2013-03-08 10:12:00,
2013-03-08 04:17:00,34.2,27.0,30.18,SE,135,0.0,3.5,75,0.00,,,0.00,WUHU216HW,2013-03-08 10:17:00,
2013-03-08 04:22:00,34.2,27.4,30.18,East,90,0.0,0.0,76,0.00,,,0.00,WUHU216HW,2013-03-08 10:22:00,
2013-03-08 04:27:00,34.2,27.4,30.17,East,90,0.0,0.0,76,0.00,,,0.00,WUHU216HW,2013-03-08 10:27:00,
2013-03-08 04:32:00,34.6,28.4,30.17,East,90,0.0,0.0,78,0.00,,,0.00,WUHU216HW,2013-03-08 10:32:00,
2013-03-08 04:37:00,34.9,28.7,30.17,ESE,113,0.8,0.8,78,0.00,,,0.00,WUHU216HW,2013-03-08 10:37:00,
2013-03-08 04:42:00,34.7,27.9,30.17,SE,135,0.8,1.3,76,0.00,,,0.00,WUHU216HW,2013-03-08 10:42:00,
2013-03-08 04:47:00,34.4,27.6,30.17,ESE,113,0.0,2.2,76,0.00,,,0.00,WUHU216HW,2013-03-08 10:47:00,
2013-03-08 04:52:00,34.4,27.6,30.17,SE,135,0.0,2.2,76,0.00,,,0.00,WUHU216HW,2013-03-08 10:52:00,
2013-03-08 04:57:00,34.6,27.7,30.17,ESE,113,1.2,3.0,76,0.00,,,0.00,WUHU216HW,2013-03-08 10:57:00,
2013-03-08 05:02:00,34.6,27.7,30.17,ESE,113,1.2,3.0,76,0.00,,,0.00,WUHU216HW,2013-03-08 11:02:00,
2013-03-08 05:07:00,34.7,28.2,30.17,East,90,1.8,2.6,77,0.00,,,0.00,WUHU216HW,2013-03-08 11:07:00,
2013-03-08 05:12:00,35.3,28.7,30.16,SE,135,0.0,4.1,77,0.00,,,0.00,WUHU216HW,2013-03-08 11:12:00,
2013-03-08 05:17:00,35.8,29.0,30.17,SSE,158,1.2,4.1,76,0.00,,,0.00,WUHU216HW,2013-03-08 11:17:00,
2013-03-08 05:22:00,36.4,29.5,30.18,SE,135,2.8,4.1,76,0.00,,,0.00,WUHU216HW,2013-03-08 11:22:00,
2013-03-08 05:27:00,36.7,29.9,30.17,SSE,158,3.4,5.6,76,0.00,,,0.00,WUHU216HW,2013-03-08 11:27:00,
2013-03-08 05:32:00,37.4,30.6,30.18,SSE,158,3.2,6.1,76,0.00,,,0.00,WUHU216HW,2013-03-08 11:32:00,
2013-03-08 05:37:00,37.8,30.6,30.18,SE,135,2.8,6.1,75,0.00,,,0.00,WUHU216HW,2013-03-08 11:37:00,
2013-03-08 05:42:00,38.2,31.0,30.18,SSE,158,4.4,5.6,75,0.00,,,0.00,WUHU216HW,2013-03-08 11:42:00,
2013-03-08 05:47:00,38.2,30.6,30.18,SSE,158,1.2,7.0,74,0.00,,,0.00,WUHU216HW,2013-03-08 11:47:00,
2013-03-08 05:52:00,38.2,30.6,30.19,SE,135,2.8,7.0,74,0.00,,,0.00,WUHU216HW,2013-03-08 11:52:00,
2013-03-08 05:57:00,38.5,31.0,30.19,SSW,203,4.4,10.7,74,0.00,,,0.00,WUHU216HW,2013-03-08 11:57:00,
2013-03-08 06:02:00,38.7,31.2,30.19,SE,135,1.4,10.7,74,0.00,,,0.00,WUHU216HW,2013-03-08 12:02:00,
2013-03-08 06:07:00,38.7,31.2,30.18,SE,135,3.2,5.9,74,0.00,,,0.00,WUHU216HW,2013-03-08 12:07:00,
2013-03-08 06:12:00,38.7,31.2,30.19,SSE,158,2.2,5.9,74,0.00,,,0.00,WUHU216HW,2013-03-08 12:12:00,
2013-03-08 06:17:00,38.7,31.2,30.18,SSE,158,1.4,6.7,74,0.00,,,0.00,WUHU216HW,2013-03-08 12:17:00,
2013-03-08 06:22:00,38.7,31.2,30.18,SE,135,1.8,7.2,74,0.00,,,0.00,WUHU216HW,2013-03-08 12:22:00,
2013-03-08 06:27:00,38.7,31.2,30.18,SE,135,1.4,7.2,74,0.00,,,0.00,WUHU216HW,2013-03-08 12:27:00,
2013-03-08 06:32:00,38.5,31.0,30.18,SE,135,2.8,4.8,74,0.00,,,0.00,WUHU216HW,2013-03-08 12:32:00,
2013-03-08 06:37:00,38.5,31.0,30.18,SE,135,3.2,7.2,74,0.00,,,0.00,WUHU216HW,2013-03-08 12:37:00,
2013-03-08 06:42:00,38.3,30.8,30.18,SE,135,3.0,7.2,74,0.00,,,0.00,WUHU216HW,2013-03-08 12:42:00,
2013-03-08 06:47:00,38.3,30.8,30.19,ESE,113,3.7,5.4,74,0.00,,,0.00,WUHU216HW,2013-03-08 12:47:00,
2013-03-08 06:52:00,38.5,31.0,30.18,ESE,113,3.7,6.7,74,0.00,,,0.00,WUHU216HW,2013-03-08 12:52:00,
2013-03-08 06:57:00,38.7,31.2,30.18,ESE,113,5.2,6.7,74,0.00,,,0.00,WUHU216HW,2013-03-08 12:57:00,
2013-03-08 07:02:00,39.1,31.4,30.18,SE,135,3.4,8.0,74,0.00,,,0.00,WUHU216HW,2013-03-08 13:02:00,
2013-03-08 07:07:00,39.4,31.8,30.18,SE,135,3.7,9.1,74,0.00,,,0.00,WUHU216HW,2013-03-08 13:07:00,
2013-03-08 07:12:00,39.8,31.8,30.18,SE,135,6.4,9.1,73,0.00,,,0.00,WUHU216HW,2013-03-08 13:12:00,
2013-03-08 07:17:00,39.8,31.8,30.18,ESE,113,7.6,10.4,73,0.00,,,0.00,WUHU216HW,2013-03-08 13:17:00,
2013-03-08 07:22:00,39.8,31.4,30.18,SSE,158,4.4,10.4,72,0.00,,,0.00,WUHU216HW,2013-03-08 13:22:00,
2013-03-08 07:27:00,39.8,31.8,30.18,SE,135,4.2,8.6,73,0.00,,,0.00,WUHU216HW,2013-03-08 13:27:00,
2013-03-08 07:32:00,40.0,31.6,30.18,SE,135,5.2,9.1,72,0.00,,,0.00,WUHU216HW,2013-03-08 13:32:00,
2013-03-08 07:37:00,40.5,32.1,30.18,SE,135,9.6,10.4,72,0.00,,,0.00,WUHU216HW,2013-03-08 13:37:00,
2013-03-08 07:42:00,40.9,32.5,30.18,SSE,158,6.6,10.4,72,0.00,,,0.00,WUHU216HW,2013-03-08 13:42:00,
2013-03-08 07:47:00,41.4,32.8,30.18,SE,135,5.2,11.0,71,0.00,,,0.00,WUHU216HW,2013-03-08 13:47:00,
2013-03-08 07:52:00,41.6,32.6,30.18,SSE,158,5.2,11.0,70,0.00,,,0.00,WUHU216HW,2013-03-08 13:52:00,
2013-03-08 07:57:00,41.6,32.6,30.18,SE,135,5.4,10.2,70,0.00,,,0.00,WUHU216HW,2013-03-08 13:57:00,
2013-03-08 08:02:00,41.6,32.6,30.18,South,180,5.2,10.2,70,0.00,,,0.00,WUHU216HW,2013-03-08 14:02:00,
2013-03-08 08:07:00,42.1,33.1,30.18,SE,135,7.2,11.8,70,0.00,,,0.00,WUHU216HW,2013-03-08 14:07:00,
2013-03-08 08:12:00,42.3,33.3,30.18,SE,135,8.9,11.8,70,0.00,,,0.00,WUHU216HW,2013-03-08 14:12:00,
2013-03-08 08:17:00,42.5,33.1,30.18,SE,135,5.6,10.4,69,0.00,,,0.00,WUHU216HW,2013-03-08 14:17:00,
2013-03-08 08:22:00,43.0,33.6,30.18,WSW,248,4.0,10.4,69,0.00,,,0.00,WUHU216HW,2013-03-08 14:22:00,
2013-03-08 08:27:00,43.4,33.6,30.19,SE,135,3.2,11.0,68,0.00,,,0.00,WUHU216HW,2013-03-08 14:27:00,
2013-03-08 08:32:00,43.7,33.5,30.19,SE,135,6.6,11.8,67,0.00,,,0.00,WUHU216HW,2013-03-08 14:32:00,
2013-03-08 08:37:00,44.3,34.0,30.19,SE,135,8.4,11.8,67,0.00,,,0.00,WUHU216HW,2013-03-08 14:37:00,
2013-03-08 08:42:00,45.2,34.1,30.19,SE,135,5.2,11.5,65,0.00,,,0.00,WUHU216HW,2013-03-08 14:42:00,
2013-03-08 08:47:00,46.3,34.8,30.19,SSE,158,6.9,9.1,64,0.00,,,0.00,WUHU216HW,2013-03-08 14:47:00,
2013-03-08 08:52:00,47.0,34.2,30.19,SE,135,4.9,10.2,61,0.00,,,0.00,WUHU216HW,2013-03-08 14:52:00,
2013-03-08 08:57:00,47.5,34.7,30.18,SSE,158,6.2,11.3,61,0.00,,,0.00,WUHU216HW,2013-03-08 14:57:00,
2013-03-08 09:02:00,47.0,33.8,30.18,ESE,113,6.6,11.3,60,0.00,,,0.00,WUHU216HW,2013-03-08 15:02:00,
2013-03-08 09:07:00,46.4,33.7,30.18,SE,135,6.9,11.0,61,0.00,,,0.00,WUHU216HW,2013-03-08 15:07:00,
2013-03-08 09:12:00,46.4,34.1,30.18,SSE,158,6.4,11.0,62,0.00,,,0.00,WUHU216HW,2013-03-08 15:12:00,
2013-03-08 09:17:00,46.3,33.9,30.17,SSE,158,5.2,8.3,62,0.00,,,0.00,WUHU216HW,2013-03-08 15:17:00,
2013-03-08 09:22:00,46.4,34.1,30.17,SE,135,6.9,10.4,62,0.00,,,0.00,WUHU216HW,2013-03-08 15:22:00,
2013-03-08 09:27:00,46.6,34.3,30.18,SSE,158,6.2,10.4,62,0.00,,,0.00,WUHU216HW,2013-03-08 15:27:00,
2013-03-08 09:32:00,46.6,34.3,30.17,SSE,158,4.9,10.4,62,0.00,,,0.00,WUHU216HW,2013-03-08 15:32:00,
2013-03-08 09:37:00,46.8,34.0,30.17,SSE,158,8.6,11.8,61,0.00,,,0.00,WUHU216HW,2013-03-08 15:37:00,
2013-03-08 09:42:00,47.2,34.4,30.17,East,90,4.4,11.8,61,0.00,,,0.00,WUHU216HW,2013-03-08 15:42:00,
2013-03-08 09:47:00,48.2,35.1,30.17,SE,135,9.6,10.4,60,0.00,,,0.00,WUHU216HW,2013-03-08 15:47:00,
2013-03-08 09:52:00,49.0,34.8,30.17,SE,135,10.6,14.8,58,0.00,,,0.00,WUHU216HW,2013-03-08 15:52:00,
2013-03-08 09:57:00,49.3,34.8,30.17,SSW,203,4.7,14.8,57,0.00,,,0.00,WUHU216HW,2013-03-08 15:57:00,
2013-03-08 10:02:00,49.3,35.2,30.17,South,180,8.1,12.1,58,0.00,,,0.00,WUHU216HW,2013-03-08 16:02:00,
2013-03-08 10:07:00,50.4,35.3,30.17,SSE,158,7.2,12.1,56,0.00,,,0.00,WUHU216HW,2013-03-08 16:07:00,
2013-03-08 10:12:00,50.6,35.4,30.17,SE,135,7.9,12.4,56,0.00,,,0.00,WUHU216HW,2013-03-08 16:12:00,
2013-03-08 10:17:00,50.4,35.3,30.17,SSE,158,7.6,12.4,56,0.00,,,0.00,WUHU216HW,2013-03-08 16:17:00,
2013-03-08 10:22:00,50.4,34.8,30.17,SSE,158,4.4,11.8,55,0.00,,,0.00,WUHU216HW,2013-03-08 16:22:00,
2013-03-08 10:27:00,50.2,35.1,30.17,South,180,5.2,12.8,56,0.00,,,0.00,WUHU216HW,2013-03-08 16:27:00,
2013-03-08 10:32:00,50.9,35.3,30.17,ESE,113,11.1,12.8,55,0.00,,,0.00,WUHU216HW,2013-03-08 16:32:00,
2013-03-08 10:37:00,51.3,35.2,30.17,SSE,158,10.6,15.4,54,0.00,,,0.00,WUHU216HW,2013-03-08 16:37:00,
2013-03-08 10:42:00,51.8,35.6,30.17,SE,135,7.6,15.4,54,0.00,,,0.00,WUHU216HW,2013-03-08 16:42:00,
2013-03-08 10:47:00,52.7,35.6,30.16,SE,135,11.6,13.9,52,0.00,,,0.00,WUHU216HW,2013-03-08 16:47:00,
2013-03-08 10:52:00,52.6,35.4,30.16,SE,135,6.9,13.7,52,0.00,,,0.00,WUHU216HW,2013-03-08 16:52:00,
2013-03-08 10:57:00,53.1,35.9,30.16,East,90,3.7,13.7,52,0.00,,,0.00,WUHU216HW,2013-03-08 16:57:00,
2013-03-08 11:02:00,53.8,36.5,30.16,SE,135,5.2,10.4,52,0.00,,,0.00,WUHU216HW,2013-03-08 17:02:00,
2013-03-08 11:07:00,54.2,35.9,30.16,ESE,113,8.4,11.0,50,0.00,,,0.00,WUHU216HW,2013-03-08 17:07:00,
2013-03-08 11:12:00,54.9,36.6,30.15,SSE,158,6.4,11.8,50,0.00,,,0.00,WUHU216HW,2013-03-08 17:12:00,
2013-03-08 11:17:00,55.6,37.3,30.15,ESE,113,9.8,11.8,50,0.00,,,0.00,WUHU216HW,2013-03-08 17:17:00,
2013-03-08 11:22:00,55.1,36.7,30.15,SSE,158,5.9,11.3,50,0.00,,,0.00,WUHU216HW,2013-03-08 17:22:00,
2013-03-08 11:27:00,55.6,37.3,30.15,South,180,9.1,11.8,50,0.00,,,0.00,WUHU216HW,2013-03-08 17:27:00,
2013-03-08 11:32:00,55.6,36.7,30.15,SE,135,8.4,11.8,49,0.00,,,0.00,WUHU216HW,2013-03-08 17:32:00,
2013-03-08 11:37:00,55.6,36.7,30.15,SE,135,13.3,14.5,49,0.00,,,0.00,WUHU216HW,2013-03-08 17:37:00,
2013-03-08 11:42:00,56.2,37.8,30.15,ESE,113,5.4,14.5,50,0.00,,,0.00,WUHU216HW,2013-03-08 17:42:00,
2013-03-08 11:47:00,56.7,37.8,30.15,SE,135,7.6,14.5,49,0.00,,,0.00,WUHU216HW,2013-03-08 17:47:00,
2013-03-08 11:52:00,56.5,37.6,30.16,SE,135,7.6,13.7,49,0.00,,,0.00,WUHU216HW,2013-03-08 17:52:00,
2013-03-08 11:57:00,56.5,38.2,30.15,East,90,3.2,13.7,50,0.00,,,0.00,WUHU216HW,2013-03-08 17:57:00,
2013-03-08 12:02:00,56.7,37.8,30.15,SSW,203,8.9,12.6,49,0.00,,,0.00,WUHU216HW,2013-03-08 18:02:00,
2013-03-08 12:07:00,56.0,37.1,30.15,SE,135,4.4,13.9,49,0.00,,,0.00,WUHU216HW,2013-03-08 18:07:00,
2013-03-08 12:12:00,55.1,36.7,30.14,SE,135,7.2,13.9,50,0.00,,,0.00,WUHU216HW,2013-03-08 18:12:00,
2013-03-08 12:17:00,54.9,36.6,30.15,SSE,158,5.2,12.8,50,0.00,,,0.00,WUHU216HW,2013-03-08 18:17:00,
2013-03-08 12:22:00,55.3,37.4,30.14,SE,135,2.2,11.8,51,0.00,,,0.00,WUHU216HW,2013-03-08 18:22:00,
2013-03-08 12:27:00,55.6,37.3,30.14,SE,135,8.9,10.2,50,0.00,,,0.00,WUHU216HW,2013-03-08 18:27:00,
2013-03-08 12:32:00,56.3,38.4,30.14,ENE,68,3.4,11.8,51,0.00,,,0.00,WUHU216HW,2013-03-08 18:32:00,
2013-03-08 12:37:00,57.4,39.1,30.14,ESE,113,12.5,14.8,50,0.00,,,0.00,WUHU216HW,2013-03-08 18:37:00,
2013-03-08 12:42:00,57.8,38.8,30.14,SE,135,10.3,14.8,49,0.00,,,0.00,WUHU216HW,2013-03-08 18:42:00,
2013-03-08 12:47:00,58.3,39.2,30.14,SSE,158,7.4,13.9,49,0.00,,,0.00,WUHU216HW,2013-03-08 18:47:00,
2013-03-08 12:52:00,58.5,39.4,30.14,SE,135,6.9,11.0,49,0.00,,,0.00,WUHU216HW,2013-03-08 18:52:00,
2013-03-08 12:57:00,58.1,39.2,30.14,SE,135,6.9,11.3,49,0.00,,,0.00,WUHU216HW,2013-03-08 18:57:00,
2013-03-08 13:02:00,58.1,39.7,30.13,SSW,203,6.9,14.8,50,0.00,,,0.00,WUHU216HW,2013-03-08 19:02:00,
2013-03-08 13:07:00,58.7,39.6,30.13,SSE,158,11.1,15.0,49,0.00,,,0.00,WUHU216HW,2013-03-08 19:07:00,
2013-03-08 13:12:00,58.7,40.1,30.12,South,180,7.6,15.0,50,0.00,,,0.00,WUHU216HW,2013-03-08 19:12:00,
2013-03-08 13:17:00,58.3,39.2,30.12,ESE,113,3.7,14.5,49,0.00,,,0.00,WUHU216HW,2013-03-08 19:17:00,
2013-03-08 13:22:00,57.6,39.3,30.12,SE,135,4.7,14.5,50,0.00,,,0.00,WUHU216HW,2013-03-08 19:22:00,
2013-03-08 13:27:00,57.2,39.3,30.11,ESE,113,11.6,13.9,51,0.00,,,0.00,WUHU216HW,2013-03-08 19:27:00,
2013-03-08 13:32:00,56.9,39.0,30.11,SE,135,4.4,13.2,51,0.00,,,0.00,WUHU216HW,2013-03-08 19:32:00,
2013-03-08 13:37:00,57.2,39.3,30.11,SE,135,12.1,13.2,51,0.00,,,0.00,WUHU216HW,2013-03-08 19:37:00,
2013-03-08 13:42:00,56.7,38.8,30.11,SSE,158,4.4,13.2,51,0.00,,,0.00,WUHU216HW,2013-03-08 19:42:00,
2013-03-08 13:47:00,56.5,39.1,30.11,SE,135,4.7,13.2,52,0.00,,,0.00,WUHU216HW,2013-03-08 19:47:00,
2013-03-08 13:52:00,56.2,38.3,30.11,SE,135,8.4,15.8,51,0.00,,,0.00,WUHU216HW,2013-03-08 19:52:00,
2013-03-08 13:57:00,55.8,38.3,30.11,SE,135,5.2,15.8,52,0.00,,,0.00,WUHU216HW,2013-03-08 19:57:00,
2013-03-08 14:02:00,56.0,39.1,30.11,SSE,158,6.4,13.7,53,0.00,,,0.00,WUHU216HW,2013-03-08 20:02:00,
2013-03-08 14:07:00,56.2,38.7,30.11,SSE,158,5.9,12.1,52,0.00,,,0.00,WUHU216HW,2013-03-08 20:07:00,
2013-03-08 14:12:00,56.5,39.6,30.11,SE,135,3.0,12.1,53,0.00,,,0.00,WUHU216HW,2013-03-08 20:12:00,
2013-03-08 14:17:00,56.5,39.6,30.10,SE,135,7.4,10.2,53,0.00,,,0.00,WUHU216HW,2013-03-08 20:17:00,
2013-03-08 14:22:00,56.5,39.6,30.10,SE,135,5.9,14.5,53,0.00,,,0.00,WUHU216HW,2013-03-08 20:22:00,
2013-03-08 14:27:00,56.0,38.5,30.10,ESE,113,11.6,14.8,52,0.00,,,0.00,WUHU216HW,2013-03-08 20:27:00,
2013-03-08 14:32:00,55.4,38.5,30.10,SSE,158,8.4,14.8,53,0.00,,,0.00,WUHU216HW,2013-03-08 20:32:00,
2013-03-08 14:37:00,55.3,38.4,30.10,SE,135,11.3,13.7,53,0.00,,,0.00,WUHU216HW,2013-03-08 20:37:00,
2013-03-08 14:42:00,55.3,38.4,30.10,ENE,68,5.6,12.6,53,0.00,,,0.00,WUHU216HW,2013-03-08 20:42:00,
2013-03-08 14:47:00,55.1,38.6,30.10,SE,135,6.4,13.4,54,0.00,,,0.00,WUHU216HW,2013-03-08 20:47:00,
2013-03-08 14:52:00,54.9,38.4,30.10,ESE,113,11.8,13.9,54,0.00,,,0.00,WUHU216HW,2013-03-08 20:52:00,
2013-03-08 14:57:00,54.4,38.0,30.09,SE,135,9.8,13.9,54,0.00,,,0.00,WUHU216HW,2013-03-08 20:57:00,
2013-03-08 15:02:00,54.2,38.3,30.09,SE,135,12.1,16.1,55,0.00,,,0.00,WUHU216HW,2013-03-08 21:02:00,
2013-03-08 15:07:00,53.8,38.0,30.08,ESE,113,7.6,16.1,55,0.00,,,0.00,WUHU216HW,2013-03-08 21:07:00,
2013-03-08 15:12:00,53.6,37.8,30.08,ESE,113,9.4,14.5,55,0.00,,,0.00,WUHU216HW,2013-03-08 21:12:00,
2013-03-08 15:17:00,53.5,37.6,30.08,East,90,14.1,15.4,55,0.00,,,0.00,WUHU216HW,2013-03-08 21:17:00,
2013-03-08 15:22:00,53.1,37.3,30.08,ESE,113,11.6,16.7,55,0.00,,,0.00,WUHU216HW,2013-03-08 21:22:00,
2013-03-08 15:27:00,52.9,37.1,30.07,SSE,158,10.6,16.7,55,0.00,,,0.00,WUHU216HW,2013-03-08 21:27:00,
2013-03-08 15:32:00,52.9,37.1,30.07,SE,135,11.1,16.1,55,0.00,,,0.00,WUHU216HW,2013-03-08 21:32:00,
2013-03-08 15:37:00,52.9,37.6,30.07,SE,135,9.4,13.7,56,0.00,,,0.00,WUHU216HW,2013-03-08 21:37:00,
2013-03-08 15:42:00,52.9,37.1,30.07,SE,135,9.4,13.7,55,0.00,,,0.00,WUHU216HW,2013-03-08 21:42:00,
2013-03-08 15:47:00,52.9,37.6,30.06,ESE,113,10.8,14.3,56,0.00,,,0.00,WUHU216HW,2013-03-08 21:47:00,
2013-03-08 15:52:00,52.7,37.5,30.06,ESE,113,7.6,14.3,56,0.00,,,0.00,WUHU216HW,2013-03-08 21:52:00,
2013-03-08 15:57:00,52.6,36.8,30.06,SE,135,5.2,15.4,55,0.00,,,0.00,WUHU216HW,2013-03-08 21:57:00,
2013-03-08 16:02:00,52.6,37.3,30.06,SE,135,7.2,15.4,56,0.00,,,0.00,WUHU216HW,2013-03-08 22:02:00,
2013-03-08 16:07:00,52.6,36.8,30.06,ESE,113,7.4,13.4,55,0.00,,,0.00,WUHU216HW,2013-03-08 22:07:00,
2013-03-08 16:12:00,52.4,37.1,30.06,ESE,113,10.1,13.4,56,0.00,,,0.00,WUHU216HW,2013-03-08 22:12:00,
2013-03-08 16:17:00,52.4,37.1,30.06,SE,135,9.4,15.4,56,0.00,,,0.00,WUHU216HW,2013-03-08 22:17:00,
2013-03-08 16:22:00,52.2,36.9,30.06,SE,135,7.6,15.4,56,0.00,,,0.00,WUHU216HW,2013-03-08 22:22:00,
2013-03-08 16:27:00,52.2,36.9,30.06,SE,135,11.3,13.9,56,0.00,,,0.00,WUHU216HW,2013-03-08 22:27:00,
2013-03-08 16:32:00,52.2,36.9,30.06,SE,135,10.8,13.9,56,0.00,,,0.00,WUHU216HW,2013-03-08 22:32:00,
2013-03-08 16:37:00,52.2,36.9,30.06,ESE,113,7.4,15.6,56,0.00,,,0.00,WUHU216HW,2013-03-08 22:37:00,
2013-03-08 16:42:00,52.2,36.9,30.05,SE,135,9.6,16.9,56,0.00,,,0.00,WUHU216HW,2013-03-08 22:42:00,
2013-03-08 16:47:00,52.0,36.7,30.05,SE,135,9.1,16.9,56,0.00,,,0.00,WUHU216HW,2013-03-08 22:47:00,
2013-03-08 16:52:00,52.0,36.7,30.05,NE,45,12.1,16.3,56,0.00,,,0.00,WUHU216HW,2013-03-08 22:52:00,
2013-03-08 16:57:00,52.0,36.7,30.05,ESE,113,7.2,18.8,56,0.00,,,0.00,WUHU216HW,2013-03-08 22:57:00,
2013-03-08 17:02:00,51.8,36.5,30.05,ESE,113,12.3,19.1,56,0.00,,,0.00,WUHU216HW,2013-03-08 23:02:00,
2013-03-08 17:07:00,51.5,36.6,30.05,SE,135,10.6,19.1,57,0.00,,,0.00,WUHU216HW,2013-03-08 23:07:00,
2013-03-08 17:12:00,51.3,36.6,30.04,ESE,113,10.8,18.0,57,0.00,,,0.00,WUHU216HW,2013-03-08 23:12:00,
2013-03-08 17:17:00,51.1,36.4,30.04,ESE,113,9.6,18.0,57,0.00,,,0.00,WUHU216HW,2013-03-08 23:17:00,
2013-03-08 17:22:00,51.1,36.8,30.04,ENE,68,7.2,18.2,58,0.00,,,0.00,WUHU216HW,2013-03-08 23:22:00,
2013-03-08 17:27:00,50.9,36.6,30.04,ESE,113,13.3,18.2,58,0.00,,,0.00,WUHU216HW,2013-03-08 23:27:00,
2013-03-08 17:32:00,51.1,36.8,30.04,ESE,113,10.1,16.1,58,0.00,,,0.00,WUHU216HW,2013-03-08 23:32:00,
2013-03-08 17:37:00,51.1,36.8,30.03,SE,135,9.1,16.1,58,0.00,,,0.00,WUHU216HW,2013-03-08 23:37:00,
2013-03-08 17:42:00,51.1,36.4,30.03,ESE,113,14.5,16.3,57,0.00,,,0.00,WUHU216HW,2013-03-08 23:42:00,
2013-03-08 17:47:00,51.1,36.4,30.03,SSE,158,9.4,16.3,57,0.00,,,0.00,WUHU216HW,2013-03-08 23:47:00,
2013-03-08 17:52:00,51.1,36.4,30.04,South,180,11.3,16.1,57,0.00,,,0.00,WUHU216HW,2013-03-08 23:52:00,
2013-03-08 17:57:00,50.8,36.5,30.04,ESE,113,7.4,16.3,58,0.00,,,0.00,WUHU216HW,2013-03-08 23:57:00,
2013-03-08 18:02:00,50.8,36.5,30.04,SE,135,7.6,16.3,58,0.00,,,0.00,WUHU216HW,2013-03-09 00:02:00,
2013-03-08 18:07:00,50.6,36.3,30.04,ESE,113,7.9,15.8,58,0.00,,,0.00,WUHU216HW,2013-03-09 00:07:00,
2013-03-08 18:12:00,50.4,36.2,30.04,SE,135,9.6,17.2,58,0.00,,,0.00,WUHU216HW,2013-03-09 00:12:00,
2013-03-08 18:17:00,50.4,36.2,30.04,SE,135,12.8,17.2,58,0.00,,,0.00,WUHU216HW,2013-03-09 00:17:00,
2013-03-08 18:22:00,50.4,36.6,30.04,East,90,9.1,14.8,59,0.00,,,0.00,WUHU216HW,2013-03-09 00:22:00,
2013-03-08 18:27:00,50.4,36.2,30.04,ESE,113,9.4,13.9,58,0.00,,,0.00,WUHU216HW,2013-03-09 00:27:00,
2013-03-08 18:32:00,50.4,36.6,30.04,SE,135,5.2,13.2,59,0.00,,,0.00,WUHU216HW,2013-03-09 00:32:00,
2013-03-08 18:37:00,50.2,36.5,30.04,East,90,6.2,11.0,59,0.00,,,0.00,WUHU216HW,2013-03-09 00:37:00,
2013-03-08 18:42:00,50.2,36.5,30.04,ESE,113,4.0,11.8,59,0.00,,,0.00,WUHU216HW,2013-03-09 00:42:00,
2013-03-08 18:47:00,50.2,36.5,30.04,SE,135,5.6,14.5,59,0.00,,,0.00,WUHU216HW,2013-03-09 00:47:00,
2013-03-08 18:52:00,50.2,36.5,30.05,ESE,113,6.6,14.5,59,0.00,,,0.00,WUHU216HW,2013-03-09 00:52:00,
2013-03-08 18:57:00,50.2,36.9,30.04,ESE,113,6.2,13.4,60,0.00,,,0.00,WUHU216HW,2013-03-09 00:57:00,
2013-03-08 19:02:00,50.2,36.9,30.05,ESE,113,5.6,13.4,60,0.00,,,0.00,WUHU216HW,2013-03-09 01:02:00,
2013-03-08 19:07:00,50.0,36.7,30.05,SE,135,11.3,12.4,60,0.00,,,0.00,WUHU216HW,2013-03-09 01:07:00,
2013-03-08 19:12:00,50.0,36.7,30.05,SE,135,7.6,16.3,60,0.00,,,0.00,WUHU216HW,2013-03-09 01:12:00,
2013-03-08 19:17:00,50.0,36.7,30.05,ESE,113,7.9,16.3,60,0.00,,,0.00,WUHU216HW,2013-03-09 01:17:00,
2013-03-08 19:22:00,49.9,37.0,30.05,SSE,158,4.0,13.4,61,0.00,,,0.00,WUHU216HW,2013-03-09 01:22:00,
2013-03-08 19:27:00,49.9,37.0,30.04,SSE,158,5.2,13.4,61,0.00,,,0.00,WUHU216HW,2013-03-09 01:27:00,
2013-03-08 19:32:00,49.7,37.5,30.04,ESE,113,5.2,12.6,63,0.00,,,0.00,WUHU216HW,2013-03-09 01:32:00,
2013-03-08 19:37:00,49.7,37.5,30.04,SE,135,6.4,12.6,63,0.00,,,0.00,WUHU216HW,2013-03-09 01:37:00,
2013-03-08 19:42:00,49.5,37.0,30.04,ESE,113,4.4,9.1,62,0.00,,,0.00,WUHU216HW,2013-03-09 01:42:00,
2013-03-08 19:47:00,49.5,37.5,30.04,ESE,113,4.7,9.1,63,0.00,,,0.00,WUHU216HW,2013-03-09 01:47:00,
2013-03-08 19:52:00,49.3,37.3,30.04,ENE,68,2.8,6.7,63,0.00,,,0.00,WUHU216HW,2013-03-09 01:52:00,
2013-03-08 19:57:00,49.3,37.3,30.04,ESE,113,8.4,9.1,63,0.00,,,0.00,WUHU216HW,2013-03-09 01:57:00,
2013-03-08 20:02:00,49.3,37.3,30.03,SE,135,5.9,9.1,63,0.00,,,0.00,WUHU216HW,2013-03-09 02:02:00,
2013-03-08 20:07:00,49.3,37.3,30.03,SSE,158,4.4,9.1,63,0.00,,,0.00,WUHU216HW,2013-03-09 02:07:00,
2013-03-08 20:12:00,49.3,37.3,30.03,SE,135,9.8,12.6,63,0.00,,,0.00,WUHU216HW,2013-03-09 02:12:00,
2013-03-08 20:17:00,49.3,37.3,30.03,SE,135,4.9,12.6,63,0.00,,,0.00,WUHU216HW,2013-03-09 02:17:00,
2013-03-08 20:22:00,49.3,37.3,30.03,SE,135,7.6,11.0,63,0.00,,,0.00,WUHU216HW,2013-03-09 02:22:00,
2013-03-08 20:27:00,49.7,37.2,30.03,SE,135,6.9,12.6,62,0.00,,,0.00,WUHU216HW,2013-03-09 02:27:00,
2013-03-08 20:32:00,49.7,37.2,30.03,SE,135,5.4,12.6,62,0.00,,,0.00,WUHU216HW,2013-03-09 02:32:00,
2013-03-08 20:37:00,49.9,37.0,30.03,SE,135,5.4,13.4,61,0.00,,,0.00,WUHU216HW,2013-03-09 02:37:00,
2013-03-08 20:42:00,50.0,37.5,30.03,SSE,158,7.9,13.4,62,0.00,,,0.00,WUHU216HW,2013-03-09 02:42:00,
2013-03-08 20:47:00,50.0,37.9,30.03,SE,135,8.4,14.3,63,0.00,,,0.00,WUHU216HW,2013-03-09 02:47:00,
2013-03-08 20:52:00,49.9,37.4,30.03,ESE,113,7.4,17.8,62,0.00,,,0.00,WUHU216HW,2013-03-09 02:52:00,
2013-03-08 20:57:00,49.9,38.2,30.03,ESE,113,6.2,17.8,64,0.00,,,0.00,WUHU216HW,2013-03-09 02:57:00,
2013-03-08 21:02:00,49.7,38.0,30.03,SE,135,9.8,14.5,64,0.00,,,0.00,WUHU216HW,2013-03-09 03:02:00,
2013-03-08 21:07:00,49.5,37.8,30.03,SE,135,10.8,12.8,64,0.00,,,0.00,WUHU216HW,2013-03-09 03:07:00,
2013-03-08 21:12:00,49.3,37.6,30.03,SSE,158,4.4,12.8,64,0.00,,,0.00,WUHU216HW,2013-03-09 03:12:00,
2013-03-08 21:17:00,49.3,37.6,30.03,SSE,158,7.4,11.8,64,0.00,,,0.00,WUHU216HW,2013-03-09 03:17:00,
2013-03-08 21:22:00,49.3,37.6,30.03,SSE,158,14.1,15.4,64,0.00,,,0.00,WUHU216HW,2013-03-09 03:22:00,
2013-03-08 21:27:00,49.3,37.6,30.03,SE,135,7.2,15.4,64,0.00,,,0.00,WUHU216HW,2013-03-09 03:27:00,
2013-03-08 21:32:00,49.3,37.6,30.03,SSE,158,5.4,15.4,64,0.00,,,0.00,WUHU216HW,2013-03-09 03:32:00,
2013-03-08 21:37:00,49.3,37.6,30.03,SSE,158,8.6,13.2,64,0.00,,,0.00,WUHU216HW,2013-03-09 03:37:00,
2013-03-08 21:42:00,49.3,37.6,30.03,East,90,10.1,14.5,64,0.00,,,0.00,WUHU216HW,2013-03-09 03:42:00,
2013-03-08 21:47:00,49.3,37.6,30.03,ESE,113,6.6,14.5,64,0.00,,,0.00,WUHU216HW,2013-03-09 03:47:00,
2013-03-08 21:52:00,49.1,37.8,30.03,ESE,113,4.7,14.3,65,0.00,,,0.00,WUHU216HW,2013-03-09 03:52:00,
2013-03-08 21:57:00,49.0,37.7,30.03,SE,135,5.6,10.2,65,0.00,,,0.00,WUHU216HW,2013-03-09 03:57:00,
2013-03-08 22:02:00,49.0,37.7,30.03,SSE,158,5.2,10.2,65,0.00,,,0.00,WUHU216HW,2013-03-09 04:02:00,
2013-03-08 22:07:00,49.1,37.4,30.02,SE,135,5.9,11.0,64,0.00,,,0.00,WUHU216HW,2013-03-09 04:07:00,
2013-03-08 22:12:00,49.1,37.8,30.03,South,180,6.4,11.0,65,0.00,,,0.00,WUHU216HW,2013-03-09 04:12:00,
2013-03-08 22:17:00,49.3,37.6,30.03,South,180,7.6,12.4,64,0.00,,,0.00,WUHU216HW,2013-03-09 04:17:00,
2013-03-08 22:22:00,49.1,37.4,30.02,SE,135,3.2,14.5,64,0.00,,,0.00,WUHU216HW,2013-03-09 04:22:00,
2013-03-08 22:27:00,49.1,37.8,30.03,SSW,203,6.4,15.6,65,0.00,,,0.00,WUHU216HW,2013-03-09 04:27:00,
2013-03-08 22:32:00,49.1,37.8,30.02,SSE,158,5.2,15.6,65,0.00,,,0.00,WUHU216HW,2013-03-09 04:32:00,
2013-03-08 22:37:00,49.0,38.1,30.02,South,180,4.9,13.7,66,0.00,,,0.00,WUHU216HW,2013-03-09 04:37:00,
2013-03-08 22:42:00,48.8,37.9,30.01,SSE,158,4.7,11.0,66,0.00,,,0.00,WUHU216HW,2013-03-09 04:42:00,
2013-03-08 22:47:00,48.8,38.3,30.00,ESE,113,7.9,12.6,67,0.00,,,0.00,WUHU216HW,2013-03-09 04:47:00,
2013-03-08 22:52:00,48.6,38.1,30.01,SE,135,7.6,13.2,67,0.00,,,0.00,WUHU216HW,2013-03-09 04:52:00,
2013-03-08 22:57:00,48.6,38.1,30.01,SE,135,4.7,13.2,67,0.00,,,0.00,WUHU216HW,2013-03-09 04:57:00,
2013-03-08 23:00:00,48.6,38.1,30.01,SE,135,5.9,12.4,67,0.00,,,0.00,WUHU216HW,2013-03-09 05:00:00,
2013-03-08 23:05:00,48.6,38.5,30.00,SSE,158,7.9,11.3,68,0.00,,,0.00,WUHU216HW,2013-03-09 05:05:00,
2013-03-08 23:10:00,48.6,38.5,30.00,SE,135,5.4,11.3,68,0.00,,,0.00,WUHU216HW,2013-03-09 05:10:00,
2013-03-08 23:15:00,48.6,38.5,30.00,SSE,158,5.9,12.6,68,0.00,,,0.00,WUHU216HW,2013-03-09 05:15:00,
2013-03-08 23:20:00,48.4,38.4,30.00,South,180,5.6,12.6,68,0.00,,,0.00,WUHU216HW,2013-03-09 05:20:00,
2013-03-08 23:25:00,48.4,38.7,30.00,SE,135,9.6,11.8,69,0.00,,,0.00,WUHU216HW,2013-03-09 05:25:00,
2013-03-08 23:30:00,48.2,38.5,29.99,SE,135,8.6,12.4,69,0.00,,,0.00,WUHU216HW,2013-03-09 05:30:00,
2013-03-08 23:35:00,48.1,39.1,29.99,ESE,113,4.9,12.4,71,0.00,,,0.00,WUHU216HW,2013-03-09 05:35:00,
2013-03-08 23:40:00,47.9,38.9,29.98,ENE,68,6.4,14.5,71,0.00,,,0.00,WUHU216HW,2013-03-09 05:40:00,
2013-03-08 23:45:00,47.9,38.9,29.98,SSE,158,9.4,14.5,71,0.00,,,0.00,WUHU216HW,2013-03-09 05:45:00,
2013-03-08 23:50:00,47.9,38.9,29.97,SE,135,4.4,13.2,71,0.00,,,0.00,WUHU216HW,2013-03-09 05:50:00,
2013-03-08 23:55:00,47.9,38.9,29.97,SE,135,4.2,12.6,71,0.00,,,0.00,WUHU216HW,2013-03-09 05:55:00,